Location: Bartshausen
(51.8454°N, 9.8167°E)
Time: 03:20:33
(UTC+00:00)

Cosmos 2369 Rocket - Pass Details

Date: 08 November 2025
Orbit: 826 x 853 km, 71.0° (Epoch: 15 December)

Event Time Altitude Azimuth Distance (km) Brightness Sun altitude
Exits shadow 03:45:34 - 343° (NNW) 2,579 4.6 -25.1°
Reaches altitude 10° 03:45:59 10° 346° (NNW) 2,470 4.5 -25.1°
Maximum altitude 03:50:04 20° 32° (NNE) 1,872 4.4 -24.4°
Drops below altitude 10° 03:54:10 10° 78° (ENE) 2,476 5.7 -23.8°
Sets 03:57:19 0° 96° (E) 3,412 6.8 -23.3°
